Regional Weather Roundup
Issued by NWS Glasgow, MT

Home | Current Version | Previous Version | Text Only | Print | Product List | Glossary On
Versions: 1 2 3 4 5 6 7 8 9 10 11 12 13 14 15 16 17 18 19 20 21 22 23 24 25 26 27 28 29 30 31 32 33 34 35 36 37 38 39 40 41 42 43 44 45 46 47 48 49 50
000
ASUS45 KGGW 302215
RWRGGW
HOURLY WEATHER ROUNDUP FOR NORTHEAST MONTANA
NATIONAL WEATHER SERVICE GLASGOW MONTANA
400 PM MDT SAT AUG 30 2014

NOTE: "FAIR" INDICATES FEW OR NO CLOUDS BELOW 12,000 FEET WITH NO
SIGNIFICANT WEATHER AND/OR OBSTRUCTIONS TO VISISBILITY.

NORTHEAST MONTANA


CITY           SKY/WX    TMP DP  RH WIND       PRES   REMARKS
GLASGOW        PTSUNNY   68  57  68 S7        29.71F
PLENTYWOOD       N/A     60  58  92 W3          N/A
WOLF POINT     CLOUDY    65  59  81 E3        29.73F
JORDAN           N/A     71  53  52 CALM      29.74F
WINNETT          N/A     71  44  37 S2          N/A
SIDNEY         CLOUDY    70  64  83 NW6       29.70F
GLENDIVE       CLOUDY    70  61  73 NW15G22   29.71F
MALTA            N/A     77  48  35 SW6         N/A
SCOBEY           N/A     61  54  77 SE6       29.74F

FORT PECK REPORTS


CITY           SKY/WX    TMP DP  RH WIND       PRES   REMARKS
FORT PECK        N/A     65  58  78 S3          N/A
THE PINES        N/A     68  53  58 S3          N/A

SOUTHEAST MONTANA


CITY           SKY/WX    TMP DP  RH WIND       PRES   REMARKS
BILLINGS       CLOUDY    65  53  65 SW9       29.81F
MILES CITY     LGT RAIN  69  58  67 SE3       29.72F
BAKER          PTSUNNY   78  57  48 NW12      29.72S
LIVINGSTON     LGT RAIN  56  48  74 VRB5      29.86F

CENTRAL MONTANA


CITY           SKY/WX    TMP DP  RH WIND       PRES   REMARKS
HAVRE          CLOUDY    70  46  42 NW17G28   29.71R
LEWISTOWN      CLOUDY    70  45  40 W6        29.80F
GREAT FALLS    LGT RAIN  69  47  45 S3        29.76F
CUT BANK       SUNNY     72  37  28 W20G26    29.76S
HELENA         PTSUNNY   70  47  43 W14G23    29.80R
BUTTE          CLOUDY    56  47  71 SE9       29.90F
BOZEMAN        CLOUDY    61  51  70 S6        29.86F

WESTERN MONTANA


CITY           SKY/WX    TMP DP  RH WIND       PRES   REMARKS
MISSOULA       PTSUNNY   75  38  26 W18       29.83F
KALISPELL      NOT AVBL

NORTH DAKOTA


CITY           SKY/WX    TMP DP  RH WIND       PRES   REMARKS
WILLISTON      LGT RAIN  71  60  68 S5        29.71S
DICKINSON      PTSUNNY   74  58  57 SE17G26   29.71F
MINOT          MOSUNNY   74  51  44 SE14      29.74F
BISMARCK       SUNNY     76  55  48 SE14G22   29.77F

SOUTHERN SASKATCHEWAN


CITY           SKY/WX    TMP DP  RH WIND       PRES   REMARKS
REGINA         LGT RAIN  64  59  82 S14       29.67R
ESTEVAN        CLOUDY    68  57  68 S8        29.72F
SWIFT CURRENT  PTSUNNY   72  45  37 NW13G18   29.66S



USA.gov is the U.S. government's official web portal to all federal, state and local government web resources and services.